Waarnemingen

Advertentie
Mijn weer
Grenoble/St.Geoirs, Frankrijk (7486): temperatuur & dauwpunt: 07.11.2019 22:00:00 - 13.11.2019 22:00:00 (CET)Grenoble/St.Geoirs, Frankrijk (7486): temperatuur 5cm: 07.11.2019 22:00:00 - 13.11.2019 22:00:00 (CET)Grenoble/St.Geoirs, Frankrijk (7486): temperatuur -20cm & temperatuur -100cm: 07.11.2019 22:00:00 - 13.11.2019 22:00:00 (CET)Grenoble/St.Geoirs, Frankrijk (7486): windsnelheid & windstoten: 07.11.2019 22:00:00 - 13.11.2019 22:00:00 (CET)Grenoble/St.Geoirs, Frankrijk (7486): windrichting: 07.11.2019 22:00:00 - 13.11.2019 22:00:00 (CET)Grenoble/St.Geoirs, Frankrijk (7486): luchtdruk: 07.11.2019 22:00:00 - 13.11.2019 22:00:00 (CET)Grenoble/St.Geoirs, Frankrijk (7486): zicht: 07.11.2019 22:00:00 - 13.11.2019 22:00:00 (CET)Grenoble/St.Geoirs, Frankrijk (7486): Zonneschijnduur: 07.11.2019 22:00:00 - 13.11.2019 22:00:00 (CET)Grenoble/St.Geoirs, Frankrijk (7486): neerslag: 07.11.2019 22:00:00 - 13.11.2019 22:00:00 (CET)
Datum & Tijd tt [°C] td [°C] tt 5cm [°C] tt -20cm [°C] tt -100cm [°C] ff [km/u] ff [kn] fx [km/u] fx [kn] dd ppp [hPa] vv [km] sd [min] rr [mm]
13.11.2019 22:00:00 -1,2 -1,5 -4,6 9,7 13,2 3 2 11 6 NO 1008,5 7 0 0,0
13.11.2019 21:00:00 -1,6 -2,3 -4,0 9,8 13,2 10 5 14 7 OZO 1009,0 12 0 0,0
13.11.2019 20:00:00 -1,0 -1,7 -3,7 9,8 13,2 11 6 13 7 O 1009,8 18 0 0,0
13.11.2019 19:00:00 1,3 0,1 -3,9 9,8 13,3 5 3 9 5 O 1009,8 26 0 0,0
13.11.2019 18:00:00 3,0 0,7 -2,6 9,7 13,3 4 2 8 4 ONO 1009,1 44 0 0,0
13.11.2019 17:00:00 5,1 0,8 1,7 9,7 13,2 6 3 19 10 NNO 1008,5 53 44 0,0
13.11.2019 16:00:00 6,6 0,7 8,1 9,6 13,3 14 7 26 14 NNW 1008,3 47 49 0,0
13.11.2019 15:00:00 7,3 0,5 7,2 9,7 13,3 13 7 26 14 NNW 1007,7 53 41 0,0
13.11.2019 14:00:00 6,2 0,5 7,1 9,7 13,3 14 7 26 14 N 1007,8 40 19 0,0
13.11.2019 13:00:00 6,7 1,6 8,1 9,7 13,3 16 9 23 12 N 1008,0 47 30 0,0
13.11.2019 12:00:00 6,1 1,8 6,2 9,7 13,3 13 7 27 15 NNO 1008,4 48 29 0,0
13.11.2019 11:00:00 4,7 1,5 4,9 9,7 13,3 16 8 26 14 NNW 1008,8 47 0 0,0
13.11.2019 10:00:00 3,8 2,0 3,7 9,8 13,3 8 5 14 7 O 1008,6 23 25 0,0
13.11.2019 09:00:00 2,8 1,6 -3,3 9,8 13,3 10 5 16 9 N 1008,0 27 8 0,0
13.11.2019 08:00:00 0,7 -0,6 -2,9 9,9 13,4 4 2 16 8 NO 1007,8 26 0 0,0
13.11.2019 07:00:00 2,0 1,1 -2,5 9,9 13,4 6 3 13 7 WNW 1006,9 29 0 0,0
13.11.2019 06:00:00 2,6 1,0 -0,9 9,9 13,3 7 4 13 7 N 1005,9 32 0 0,0
13.11.2019 05:00:00 3,1 2,1 2,1 10,0 13,4 4 2 9 5 NO 1006,3 27 0 0,0
13.11.2019 04:00:00 2,7 1,7 1,0 10,0 13,4 6 3 10 6 O 1006,2 29 0 0,0
13.11.2019 03:00:00 2,6 1,3 0,5 10,1 13,4 4 2 24 13 ZZO 1006,2 23 0 0,0
13.11.2019 02:00:00 3,9 2,1 1,5 10,1 13,4 15 8 23 12 NNO 1006,0 30 0 0,0
13.11.2019 01:00:00 2,3 1,9 -0,8 10,2 13,4 2 1 6 3 O 1006,1 9 0 0,0
13.11.2019 00:00:00 2,5 1,9 -0,7 10,2 13,4 4 2 11 6 NW 1005,8 11 0 0,0
12.11.2019 23:00:00 2,4 1,2 0,7 10,3 13,4 8 4 13 7 WZW 1006,1 15 0 0,0
12.11.2019 22:00:00 4,4 2,1 1,7 10,3 13,4 5 3 14 8 N 1005,8 28 0 0,0
12.11.2019 21:00:00 3,4 1,9 0,9 10,3 13,5 5 3 18 10 ONO 1006,3 24 0 0,0
12.11.2019 20:00:00 3,5 1,4 0,4 10,3 13,5 9 5 19 10 OZO 1007,1 17 0 0,0
12.11.2019 19:00:00 4,3 2,0 0,5 10,3 13,5 11 6 18 10 OZO 1007,6 23 0 0,0
12.11.2019 18:00:00 4,0 1,2 -1,0 10,2 13,5 11 6 14 8 NO 1007,9 27 0 0,0
12.11.2019 17:00:00 6,8 2,3 3,2 10,2 13,5 6 3 16 9 NNO 1007,4 34 47 0,0
12.11.2019 16:00:00 8,6 1,7 11,0 10,1 13,5 10 5 22 12 NNO 1007,2 37 60 0,0
12.11.2019 15:00:00 9,4 1,8 10,6 10,1 13,5 15 8 31 17 NNW 1007,4 35 55 0,0
12.11.2019 14:00:00 9,7 2,8 14,2 10,0 13,5 12 7 22 12 N 1007,7 34 60 0,0
12.11.2019 13:00:00 9,3 1,4 13,4 10,1 13,5 11 6 21 11 NNO 1008,7 24 60 0,0
12.11.2019 12:00:00 8,9 -0,2 11,5 10,1 13,5 9 5 17 9 N 1009,8 43 60 0,0
12.11.2019 11:00:00 7,8 1,0 9,8 10,1 13,5 12 7 19 10 N 1010,7 26 60 0,0
12.11.2019 10:00:00 6,1 3,8 6,8 10,2 13,6 5 3 10 5 ZO 1011,4 17 60 0,0
12.11.2019 09:00:00 2,8 2,7 -2,2 10,3 13,6 4 2 10 5 OZO 1012,9 8 60 0,0
12.11.2019 08:00:00 1,0 0,7 -3,6 10,3 13,6 5 3 10 5 OZO 1012,6 7 3 0,0
12.11.2019 07:00:00 0,6 0,0 -3,4 10,4 13,6 9 5 13 7 O 1012,8 13 0 0,0
12.11.2019 06:00:00 1,9 1,0 -1,2 10,4 13,6 9 5 12 6 NNO 1013,0 17 0 0,0
12.11.2019 05:00:00 3,4 2,2 1,7 10,4 13,6 10 5 15 8 NNO 1013,0 23 0 0,0
12.11.2019 04:00:00 3,9 2,6 2,5 10,4 13,6 7 4 14 8 N 1013,2 24 0 0,0
12.11.2019 03:00:00 4,3 2,8 2,8 10,5 13,6 9 5 19 10 NNW 1013,7 25 0 0,0
12.11.2019 02:00:00 4,9 3,6 4,0 10,5 13,6 10 5 19 10 NW 1013,6 10 0 0,0
12.11.2019 01:00:00 4,7 4,1 1,8 10,5 13,7 4 2 11 6 W 1013,7 10 0 0,0
12.11.2019 00:00:00 4,7 4,0 3,3 10,5 13,7 5 3 8 5 ZO 1013,5 8 0 0,0
11.11.2019 23:00:00 4,8 4,1 4,3 10,6 13,7 3 2 7 4 OZO 1013,3 9 0 0,2
11.11.2019 22:00:00 4,6 3,6 4,2 10,6 13,7 4 2 12 7 O 1012,5 5 0 0,8
11.11.2019 21:00:00 4,6 3,4 1,9 10,6 13,7 6 4 11 6 NNO 1011,8 11 0 0,0
11.11.2019 20:00:00 4,1 2,0 1,6 10,5 13,7 6 4 14 8 OZO 1011,2 15 0 0,0
11.11.2019 19:00:00 3,8 3,2 -0,2 10,5 13,7 9 5 16 8 O 1010,6 11 0 0,0
11.11.2019 18:00:00 3,3 1,5 1,2 10,5 13,7 11 6 16 8 O 1010,7 14 0 0,0
11.11.2019 17:00:00 6,4 3,7 4,7 10,4 13,7 10 6 17 9 ONO 1010,3 14 37 0,0
11.11.2019 16:00:00 8,3 3,7 9,2 10,4 13,7 9 5 14 7 O 1009,9 21 24 0,0
11.11.2019 15:00:00 8,0 3,1 9,0 10,3 13,8 4 2 10 5 N 1010,2 19 0 0,0
11.11.2019 14:00:00 7,7 2,6 9,2 10,3 13,8 5 3 9 5 OZO 1010,7 23 0 0,0
11.11.2019 13:00:00 7,8 3,1 10,2 10,3 13,8 3 1 12 6 O 1011,3 21 19 0,0
11.11.2019 12:00:00 6,6 4,1 8,9 10,3 13,8 4 2 7 4 OZO 1012,4 18 7 0,0
11.11.2019 11:00:00 5,1 4,1 5,7 10,3 13,8 3 1 6 3 WNW 1013,5 15 1 0,0
11.11.2019 10:00:00 3,7 3,3 3,8 10,4 13,8 3 2 8 4 WNW 1014,2 10 0 0,0
11.11.2019 09:00:00 3,3 3,0 2,7 10,4 13,8 2 1 13 7 N 1015,0 7 0 0,0
11.11.2019 08:00:00 2,5 2,4 1,8 10,5 13,8 3 2 8 4 OZO 1015,5 4,8 0 0,0
11.11.2019 07:00:00 2,2 2,1 0,9 10,5 13,8 3 1 9 5 ZZO 1015,3 5 0 0,0
11.11.2019 06:00:00 2,0 2,0 -0,2 10,6 13,8 6 3 15 8 N 1015,8 6 0 0,0
11.11.2019 05:00:00 0,3 0,2 -3,9 10,7 13,9 4 2 8 4 O 1016,3 0,8 0 0,0
11.11.2019 04:00:00 0,1 -0,2 -3,2 10,7 13,9 4 2 10 5 N 1016,0 5 0 0,0
11.11.2019 03:00:00 1,1 0,8 -2,1 10,8 13,9 8 5 10 6 Z 1015,8 4,1 0 0,0
11.11.2019 02:00:00 0,6 0,3 -2,8 10,9 13,9 6 3 9 5 ZW 1017,0 8 0 0,0
11.11.2019 01:00:00 -0,2 -0,6 -3,1 10,9 13,9 6 4 9 5 OZO 1016,6 6 0 0,0
11.11.2019 00:00:00 1,3 0,9 -2,2 11,0 13,9 3 2 11 6 ZO 1015,7 9 0 0,0
10.11.2019 23:00:00 1,5 0,8 -2,2 11,0 13,9 2 1 11 6 ZO 1015,4 15 0 0,0
10.11.2019 22:00:00 2,4 0,9 -0,5 11,0 13,9 8 5 18 10 OZO 1015,4 15 0 0,0
10.11.2019 21:00:00 4,6 2,8 3,2 11,0 13,9 12 7 21 11 N 1015,1 27 0 0,0
10.11.2019 20:00:00 5,2 2,9 4,0 11,0 13,9 13 7 19 11 N 1015,1 34 0 0,0
10.11.2019 19:00:00 5,7 2,9 4,0 11,0 14,0 10 5 19 10 N 1014,6 36 0 0,0
10.11.2019 18:00:00 6,8 3,6 4,9 10,9 14,0 6 3 16 9 N 1013,8 38 0 0,0
10.11.2019 17:00:00 7,1 3,3 6,7 10,9 14,0 12 7 21 11 N 1012,8 38 30 0,0
10.11.2019 16:00:00 8,1 3,7 8,9 10,9 14,0 11 6 18 10 NNW 1012,1 32 24 0,0
10.11.2019 15:00:00 8,5 3,9 9,0 10,8 14,0 12 7 18 10 NNO 1011,6 36 16 0,0
10.11.2019 14:00:00 7,9 3,5 8,5 10,8 14,0 13 7 21 12 N 1011,7 37 0 0,0
10.11.2019 13:00:00 8,0 4,0 9,5 10,8 14,0 3 1 9 5 ONO 1011,2 30 0 0,0
10.11.2019 12:00:00 7,1 4,1 7,7 10,8 14,0 4 2 13 7 OZO 1011,3 24 0 0,0
10.11.2019 11:00:00 6,1 4,1 6,5 10,8 14,1 8 5 20 11 ONO 1011,3 21 0 0,0
10.11.2019 10:00:00 5,3 3,9 4,8 10,9 14,1 13 7 21 12 ONO 1010,8 21 0 0,2
10.11.2019 09:00:00 4,6 3,6 3,9 10,9 14,1 12 6 17 9 ONO 1010,7 9 0 0,0
10.11.2019 08:00:00 4,0 3,4 3,1 10,9 14,1 10 5 12 7 O 1010,4 11 0 0,0
10.11.2019 07:00:00 4,2 3,3 3,2 11,0 14,1 4 2 14 7 ONO 1009,8 14 0 0,0
10.11.2019 06:00:00 5,0 3,3 4,2 11,0 14,1 3 2 7 4 ONO 1009,6 21 0 0,0
10.11.2019 05:00:00 5,1 2,6 4,1 11,1 14,1 3 1 12 7 Z 1009,2 30 0 0,0
10.11.2019 04:00:00 4,8 2,7 3,9 11,1 14,1 8 5 14 8 NNO 1009,3 22 0 0,0
10.11.2019 03:00:00 4,7 2,9 3,6 11,1 14,1 8 4 21 11 ZZW 1009,7 9 0 0,2
10.11.2019 02:00:00 3,8 3,1 2,9 11,3 14,2 3 2 11 6 NNW 1009,6 11 0 0,0
10.11.2019 01:00:00 3,4 2,2 2,2 11,3 14,2 6 4 17 9 O 1009,0 12 0 0,0
10.11.2019 00:00:00 2,5 2,2 -2,2 11,4 14,2 13 7 21 11 ONO 1009,2 10 0 0,0
09.11.2019 23:00:00 -0,2 -0,8 -3,1 11,4 14,2 12 6 18 10 O 1010,5 8 0 0,0
09.11.2019 22:00:00 1,2 0,8 -2,6 11,5 14,2 7 4 11 6 O 1010,5 7 0 0,0
09.11.2019 21:00:00 0,6 -0,4 -1,8 11,5 14,2 8 4 14 8 O 1010,5 8 0 0,0
09.11.2019 20:00:00 2,0 1,3 -1,7 11,5 14,2 8 4 11 6 O 1010,6 8 0 0,0
09.11.2019 19:00:00 2,0 1,1 -1,6 11,5 14,2 11 6 12 7 O 1010,8 13 0 0,0
09.11.2019 18:00:00 5,1 3,8 -0,1 11,4 14,2 7 4 10 5 ONO 1010,8 18 0 0,0
09.11.2019 17:00:00 7,1 3,3 5,0 11,4 14,2 5 3 17 9 NNO 1011,1 29 44 0,0
09.11.2019 16:00:00 9,5 2,3 12,8 11,3 14,2 4 2 9 5 NNW 1011,1 27 56 0,0
09.11.2019 15:00:00 9,2 3,6 10,7 11,2 14,2 6 4 19 10 N 1011,8 31 43 0,0
09.11.2019 14:00:00 8,5 3,3 10,2 11,1 14,3 11 6 22 12 NNW 1012,3 22 14 0,0
09.11.2019 13:00:00 9,2 4,0 12,3 11,1 14,2 13 7 22 12 NNW 1012,3 21 54 0,0
09.11.2019 12:00:00 8,7 4,5 11,2 11,1 14,3 16 9 23 12 NNW 1013,0 23 34 0,0
09.11.2019 11:00:00 7,9 5,0 7,6 11,1 14,3 5 3 14 8 NNW 1013,5 18 32 0,0
09.11.2019 10:00:00 6,2 3,7 6,3 11,2 14,3 4 2 10 5 WZW 1014,1 17 0 0,0
09.11.2019 09:00:00 5,6 3,6 5,4 11,2 14,3 3 2 10 5 ZW 1014,3 12 0 0,0
09.11.2019 08:00:00 5,3 4,1 5,1 11,3 14,3 6 4 13 7 WNW 1013,8 7 0 0,0
09.11.2019 07:00:00 5,0 4,3 4,4 11,3 14,3 2 1 9 5 Z 1013,2 9 0 0,0
09.11.2019 06:00:00 4,2 4,1 2,1 11,4 14,3 6 3 16 9 N 1013,1 9 0 0,0
09.11.2019 05:00:00 2,9 2,8 -0,5 11,4 14,3 4 2 6 3 NO 1012,5 6 0 0,0
09.11.2019 04:00:00 2,8 2,4 0,0 11,5 14,4 5 3 7 4 O 1011,8 2,8 0 0,0
09.11.2019 03:00:00 4,0 3,7 3,3 11,5 14,4 5 3 8 4 ZO 1011,5 2,8 0 0,0
09.11.2019 02:00:00 3,7 3,4 2,2 11,6 14,4 4 2 9 5 NO 1011,6 6 0 0,0
09.11.2019 01:00:00 3,6 3,3 1,6 11,6 14,4 3 1 8 4 W 1011,0 9 0 0,0
09.11.2019 00:00:00 2,4 2,0 -0,4 11,6 14,4 8 4 10 6 O 1010,3 10 0 0,0
08.11.2019 23:00:00 2,5 2,1 0,5 11,7 14,4 6 4 14 7 O 1009,8 6 0 0,0
08.11.2019 22:00:00 3,9 3,3 1,8 11,7 14,4 5 3 11 6 O 1009,0 9 0 0,0
08.11.2019 21:00:00 4,2 3,6 2,3 11,7 14,4 10 5 12 7 O 1008,4 11 0 0,0
08.11.2019 20:00:00 3,8 3,2 -0,7 11,8 14,5 5 3 9 5 ONO 1007,9 12 0 0,0
08.11.2019 19:00:00 3,7 2,4 -0,7 11,7 14,5 3 2 7 4 ZZO 1007,4 13 0 0,0
08.11.2019 18:00:00 5,9 3,7 1,7 11,7 14,5 0 0 11 6 N 1006,1 7 0 0,0
08.11.2019 17:00:00 7,3 4,6 5,9 11,7 14,5 7 4 13 7 ONO 1005,2 25 24 0,0
08.11.2019 16:00:00 8,5 4,1 8,5 11,6 14,5 9 5 16 8 ONO 1004,6 28 6 0,0
08.11.2019 15:00:00 8,9 4,3 9,7 11,6 14,5 13 7 19 10 O 1004,0 28 25 0,0
08.11.2019 14:00:00 9,2 4,6 10,8 11,5 14,5 12 7 19 11 O 1003,7 20 39 0,0
08.11.2019 13:00:00 9,3 5,3 10,4 11,5 14,5 8 4 14 8 O 1003,6 17 30 0,0
08.11.2019 12:00:00 7,7 6,6 8,8 11,6 14,5 6 4 16 9 WZW 1004,4 13 36 0,0
08.11.2019 11:00:00 6,1 5,1 6,9 11,6 14,6 7 4 13 7 OZO 1005,1 10 37 0,0
08.11.2019 10:00:00 4,5 4,4 4,8 11,7 14,5 5 3 8 5 O 1005,2 3,4 6 0,0
08.11.2019 09:00:00 4,0 4,0 4,0 11,7 14,5 5 3 21 11 ZZW 1005,4 0,2 0 0,0
08.11.2019 08:00:00 3,8 3,8 -0,9 11,8 14,6 16 8 24 13 O 1005,2 1,2 0 0,0
08.11.2019 07:00:00 0,6 0,5 -1,8 11,9 14,6 13 7 17 9 O 1005,3 7 0 0,0
08.11.2019 06:00:00 1,0 0,7 -1,4 11,9 14,6 9 5 13 7 O 1005,3 8 0 0,0
08.11.2019 05:00:00 0,8 0,2 -0,7 12,0 14,6 12 6 14 8 O 1005,0 10 0 0,0
08.11.2019 04:00:00 3,6 2,9 1,2 12,0 14,6 13 7 21 12 ONO 1004,6 17 0 0,0
08.11.2019 03:00:00 2,8 1,8 1,0 12,1 14,6 11 6 18 10 ONO 1005,4 17 0 0,0
08.11.2019 02:00:00 5,2 4,3 4,4 12,1 14,6 14 7 23 12 ONO 1005,3 12 0 0,0
08.11.2019 01:00:00 5,5 4,8 4,8 12,1 14,6 15 8 21 11 ONO 1005,6 15 0 0,0
08.11.2019 00:00:00 5,5 4,8 4,7 12,2 14,6 11 6 16 9 ONO 1005,8 17 0 0,0
07.11.2019 23:00:00 6,0 5,3 5,5 12,2 14,7 13 7 16 9 O 1006,2 16 0 0,0
07.11.2019 22:00:00 6,1 5,1 5,7 12,2 14,7 8 4 15 8 O 1006,5 19 0 0,0

tt = temperatuur
td = dauwpunt
tt 5cm = temperatuur 5cm
tt -20cm = temperatuur -20cm
tt -100cm = temperatuur -100cm
ff = windsnelheid
fx = windstoten
dd = windrichting
ppp = luchtdruk
vv = zicht
sd = Zonneschijnduur
rr = neerslag

Weerstations in de omgeving